{"data":{"norad_id":50175,"epoch":"2026-05-25T03:32:25.692576Z","epoch_age_seconds":62173,"freshness":"FRESH","line1":"1 50175U 21125V   26145.14751959 -.00014231  00000+0 -87970-3 0  9994","line2":"2 50175  53.2155 265.8882 0000963  51.4000 308.7078 15.08763000248140","mean_motion":15.08763,"eccentricity":9.63e-5,"inclination_deg":53.2155,"raan_deg":265.8882,"arg_perigee_deg":51.4,"mean_anomaly_deg":308.7078,"bstar":-0.0008797,"rev_number":24814,"period_min":95.442425351099,"perigee_km":539.31254262193,"apogee_km":540.64497171676,"semimajor_km":6918.1157571693,"source":"CELESTRAK","updated_at":"2026-05-25T13:38:16.844900Z"}}